Regional Weather Roundup
Issued by NWS

Current Version | Previous Version | Text Only | Print | Product List | Glossary On
Versions: 1 2 3 4 5 6 7 8 9 10 11 12 13 14 15 16 17 18 19 20 21 22 23 24 25 26 27 28 29 30 31 32 33 34 35 36 37 38 39 40 41 42 43 44 45 46 47 48 49 50
000
ASCA44 KEWX 252020
RWRMX

LATIN AMERICA AND CARIBBEAN REGIONAL WEATHER ROUNDUP
NATIONAL WEATHER SERVICE AUSTIN/SAN ANTONIO TX
300 PM CDT SUN SEP 25 2016

NOTE: "FAIR" INDICATED FEW OR NO CLOUDS BELOW 12,000 FEET WITH NO
SIGNIFICANT WEATHER AND/OR OBSTRUCTIONS TO VISIBILITY.

BAJA CALIFORNIA

CITY           SKY/WX    TMP DP  RH WIND       PRES   REMARKS
LORETO         MOSUNNY   88  86  94 NE9       29.85F HX 116
LA PAZ         PTSUNNY   88  61  40 N13       29.89
MEXICALI       SUNNY     93  28  10 N22       29.96
S.J. DEL CABO  MOSUNNY   90  63  40 W3        29.88F HX  90
TIJUANA        SUNNY     93  36  13 CALM      29.96F

NORTHWESTERN MEXICO

CITY           SKY/WX    TMP DP  RH WIND       PRES   REMARKS
CULIACAN       PTSUNNY   82  72  69 N7        29.87
DURANGO        PTSUNNY   72  52  49 NE8       30.16
GUAYMAS        MOSUNNY   88  66  48 SW12      29.82F HX  90
HERMOSILLO     SUNNY     91  50  24 W6        29.90
CD. JUAREZ     PTSUNNY   81  41  24 E9G21     30.09
LOS MOCHIS     PTSUNNY   86  63  45 SE12      29.88F
OBREGON        MOSUNNY   95  52  23 S5        29.83  HX  92

NORTHEASTERN MEXICO

CITY           SKY/WX    TMP DP  RH WIND       PRES   REMARKS
CHIHUAHUA      CLOUDY    68  54  60 E9        30.17
MATAMOROS      PTSUNNY   95  73  49 SE17      29.86  HX 105
MONCLOVA         N/A    N/A N/A N/A MISG        N/A
MONTERREY      PTSUNNY   88  66  48 SE7       29.88F HX  90
NUEVO LAREDO   PTSUNNY   93  68  43 S7        29.86  HX  97
PIEDRAS NEGRAS LGT RAIN  72  70  94 N7        30.00F VSB 1
REYNOSA        PTSUNNY   93  63  36 SE17G29   29.84  HX  94
SALTILLO       MOSUNNY   81  61  50 N14       30.11F
TORREON        PTSUNNY   84  59  42 CALM      30.01F
CD. VICTORIA   MOSUNNY   93  63  36 S14       29.85  HX  94

WESTERN MEXICO

CITY           SKY/WX    TMP DP  RH WIND       PRES   REMARKS
AGUASCALIENTES MOSUNNY   77  48  36 SE6       30.18
COLIMA         PTSUNNY   84  73  70 SW9       29.92F HX  91
DEL BAJIO      PTSUNNY   75  57  53 S5        30.22F
GUADALAJARA    PTSUNNY   79  57  47 CALM      30.11
MANZANILLO     MOSUNNY   90  75  62 W17       29.79F HX 100
MAZATLAN       PTSUNNY   86  73  66 W7        29.86F HX  93
P. VALLARTA    MOSUNNY   88  79  74 SW10      29.84F HX 102
URUAPAN        PTSUNNY   72  64  78 SW7       30.13S
ZACATECAS      PTSUNNY   73  52  46 SW7       30.21F

CENTRAL MEXICO

CITY           SKY/WX    TMP DP  RH WIND       PRES   REMARKS
MEXICO CITY    PTSUNNY   73  52  46 NE5       30.23F
MORELIA        PTSUNNY   77  59  53 W3        30.15
POZA RICA      PTSUNNY   93  73  52 E12       29.89F HX 102
PUEBLA         MOSUNNY   73  55  53 SW12      30.22F
QUERETARO      PTSUNNY   75  57  53 NE9       30.21F
S. LUIS POTOSI PTSUNNY   77  50  38 NW6       30.14F
TAMPICO        MOSUNNY   88  75  66 E12       29.89S HX  97
TOLUCA         PTSUNNY   68  52  56 NE7       30.30F

SOUTHERN MEXICO

CITY           SKY/WX    TMP DP  RH WIND       PRES   REMARKS
ACAPULCO       PTSUNNY   86  77  74 SW5       29.83F HX  97
B. DE HUATULCO LGT RAIN  79  75  89 S9        29.96
OAXACA         MOSUNNY   81  50  34 SW2       30.09F
P. ESCONDIDO     N/A    N/A N/A N/A MISG        N/A
VERACRUZ       MOSUNNY   84  75  74 E6        29.85F HX  92
ZIHUATANEJO    MOSUNNY   90  75  62 SW12      29.83F HX 100

YUCATAN PENINSULA

CITY           SKY/WX    TMP DP  RH WIND       PRES   REMARKS
CAMPECHE       PTSUNNY   86  77  74 SE12G23   29.84F HX  97
CANCUN         CLOUDY    86  79  79 E8        29.92F HX  99
CHETUMAL       PTSUNNY   86  75  70 E12       29.88  HX  95
CD. DEL CARMEN PTSUNNY   90  77  66 SE2       29.84  HX 102
COZUMEL        PTSUNNY   84  79  84 MISG      29.92F HX  96
MERIDA         PTSUNNY   75  72  88 NE5       29.89F
MINATITLAN     PTSUNNY   86  68  54 CALM      29.78
TAPACHULA      PTSUNNY   86  77  74 SW12      29.81F HX  97
TUX. GUTIERREZ PTSUNNY   84  70  61 S3        29.90F
VILLAHERMOSA   PTSUNNY   86  75  70 NW5       29.85F HAZE    HX  95

CENTRAL AMERICA

CITY           SKY/WX    TMP DP  RH WIND       PRES   REMARKS
BELIZE CITY    LGT RAIN  84  79  84 NE6       29.89F HX  96
MANAGUA        PTCLDY    88  75  66 SE18      29.77F HX  97

CARIBBEAN

CITY           SKY/WX    TMP DP  RH WIND       PRES   REMARKS
ARUBA          MOSUNNY   90  81  74 E18       29.80F HX 108
CURACAO        MOSUNNY   88  77  70 E14       29.83F HX 100
KINGSTON       PTSUNNY   86  77  74 SE18      29.86F HX  97
NASSAU         TSTM      77  77 100 NE10      29.99F
SAN JUAN       MOSUNNY   88  75  66 NE15      29.92R HX  97
SANTO DOMINGO  MOSUNNY   88  75  66 S8        29.89S HX  97
ST. CROIX      PTSUNNY   81  79  94 NE3       29.92
ST. KITTS      MOSUNNY   86  73  66 NE8       29.92S HX  93
ST. MAARTEN    MOSUNNY   88  73  62 E6        29.92S HX  96
ST. THOMAS     PTSUNNY   88  75  66 N7        29.91  HX  97

$$





USA.gov is the U.S. government's official web portal to all federal, state and local government web resources and services.